Weather in La Seu d'Urgell

Spain     42°21′23″N   1°27′20″E
temp.,
°C
wind,
m/s
gust,
m/s
humid.,
%
clouds,
%
prec.,
mm/h
press.,
hPa
HPBL,
m
16 june, wed
wed1623:00+15ne226972 0.0 102022
02:00+14ne2267100 0.0 101925
05:00+14ene226399 0.0 101816
08:00+17e115785 0.0 101750
11:00+24sw223557 0.0 10161207
14:00+26ssw352963 0.0 10142372
17:00+23s4539100 0.0 10141330
20:00+21ssw344899 0.0 10141013
17 june, thu
thu1723:00+15e226844 0.0 101519
02:00+14ene227214 0.1 101526
05:00+15e2265100 0.0 101437
08:00+16ene345998 0.0 1013102
11:00+16ese2370100 0.3 1013116
14:00+15ne357897 1.3 1012337
17:00+19sse5106310 0.9 10101469
20:00+16s248796 5.6 1012397
18 june, fri
fri1823:00+12se11972 2.4 101511
02:00+12ne11924 2.7 101512
05:00+11nne229288 0.0 101519
08:00+13nne118267 0.0 101550
11:00+21wsw124320 0.0 10141140
14:00+23s344054 0.0 10141955
17:00+23s344079 0.0 10142120
20:00+20sse335798 0.0 1014568
19 june, sat
sat1923:00+13se2282100 0.1 101825
02:00+13e227690 0.6 101822
05:00+14ene118398 1.1 101615
08:00+15e128491 1.4 101785
11:00+15s3585100 2.8 1018307
14:00+13ne2396100 17.6 1018180
17:00+17ese31481100 0.5 10141248
20:00+17se247996 1.3 101395
20 june, sun
sun2023:00+13s219453 0.3 101419
02:00+13sse1296100 1.8 101452
05:00+13se1196100 0.8 101227
08:00+13s119124 2.6 101359
11:00+18wsw244317 0.1 10121136
14:00+21sw363440 0.1 10111958
17:00+21sw463115 0.0 10112147
20:00+17wsw33475 0.0 1011841